STARLINK-36643

Last updated on Sun Mar 15 2026 00:02:07 GMT+0000 (Coordinated Universal Time)

1 67822U 26033B 26073.58335648 -.01941259 00000+0 -22242-1 0 9994 2 67822 42.9994 241.8577 0001714 272.4690 117.4367 15.64451142 5457
UTC large
Height (km)
Speed (km/s)
/
Latitude / Longitude
Inclination (degrees)
Orbital Period (minutes)
Azimuth
Elevation
Range (km)
Doppler Factor

Next 0 passes for location: London (51.5072 / 0.1276)

Sorry there are no passes over London.